Theta_e
314 315 311 310 313 313 311 309 309 311 313 314 314 315 316 317 316 314 318 323 324 323 324 323 322 322 322 323 323 323 323 324 324 323 323 324 325 325 325 324 324 324 323 323 323 323 322 322 322 322 322 322 322 322 321 319 317 316 315 315 316 317 318
315 315 309 306 308 308 308 309 310 312 314 316 316 316 316 317 317 315 317 321 322 322 322 322 321 322 321 321 322 321 321 321 322 322 323 324 324 324 324 324 324 324 324 324 324 323 323 322 323 322 322 321 320 321 321 318 316 314 312 312 314 316 318
315 313 308 307 307 307 307 307 308 310 313 315 315 315 316 318 317 315 315 317 319 319 319 319 320 320 319 319 317 316 317 317 318 320 322 322 322 323 323 324 324 324 324 324 323 322 322 322 322 321 321 320 317 317 318 316 314 313 312 311 313 315 317
313 310 307 307 307 307 307 306 306 307 309 312 312 313 316 318 317 316 315 315 314 313 314 316 315 312 310 310 309 310 312 314 316 319 320 320 320 320 321 322 323 323 323 322 322 322 322 321 321 320 319 317 314 313 314 314 313 313 312 312 313 314 316
311 308 308 308 308 307 306 306 306 306 306 307 309 312 316 318 317 315 312 310 308 307 309 309 307 305 304 303 304 307 310 312 314 316 314 315 314 312 314 319 321 321 320 319 318 317 315 313 313 313 311 309 308 309 312 313 313 314 313 314 315 315 316
311 308 308 308 307 307 306 305 305 306 305 306 307 309 313 316 314 311 307 305 305 305 306 306 305 305 305 304 304 306 307 308 309 308 306 307 307 306 309 312 314 314 313 311 309 308 306 305 306 306 305 305 305 308 311 313 313 314 314 314 315 316 318
310 308 308 308 308 306 306 305 305 305 306 305 306 307 310 311 309 306 305 306 306 306 306 306 306 306 306 306 306 305 306 306 305 305 305 305 305 306 306 307 307 307 306 305 304 304 303 303 304 303 303 304 305 308 312 314 313 314 314 314 315 316 317
309 308 308 307 307 306 306 306 305 306 306 305 306 306 307 307 306 306 306 306 306 306 306 306 306 306 306 306 306 305 305 305 305 305 305 305 305 305 305 304 304 304 304 303 303 303 303 303 303 303 302 303 303 306 310 313 313 313 314 314 314 314 315
310 309 308 307 307 306 306 306 305 306 306 305 306 305 305 306 306 306 306 306 306 306 306 306 306 306 305 305 305 305 305 305 305 305 304 304 304 304 304 303 303 303 303 303 303 303 303 304 304 303 303 303 303 303 305 309 310 311 312 312 312 312 312
311 311 309 307 307 307 306 306 306 306 306 306 306 306 306 305 306 306 306 306 306 306 306 306 305 305 305 305 305 305 304 304 304 304 304 304 303 304 304 303 303 304 304 304 304 305 305 305 305 306 305 305 305 303 304 305 306 306 308 308 307 307 307
314 315 312 309 308 307 307 306 307 306 306 306 306 305 305 306 306 306 306 306 306 306 306 305 305 306 305 306 306 305 306 306 305 305 305 305 305 306 305 305 305 305 306 306 307 307 307 307 307 307 307 307 307 306 305 305 305 306 305 305 305 304 304
317 316 313 311 309 307 307 307 306 307 307 306 306 306 306 306 306 306 306 306 306 306 306 306 306 307 307 307 308 308 307 308 307 307 307 307 307 307 307 307 307 307 308 308 309 309 309 309 308 308 308 308 307 306 306 306 306 306 305 305 304 304 304
319 316 313 313 312 310 309 308 307 307 307 307 307 306 306 306 306 306 307 306 307 306 306 307 307 307 308 308 308 308 308 308 308 308 308 307 307 308 308 308 308 308 308 309 310 310 310 310 310 309 309 309 308 307 306 306 306 305 305 305 304 304 304
319 318 316 316 316 312 311 311 310 310 310 308 307 307 307 307 307 307 307 307 307 307 307 307 307 307 308 308 308 308 308 308 308 309 308 308 308 308 307 307 307 307 308 308 309 310 310 310 310 310 310 309 309 309 308 307 307 306 306 305 305 304 304
318 318 317 318 317 313 310 313 315 314 313 312 311 309 308 308 308 307 308 308 307 308 308 308 308 308 308 308 308 308 308 308 308 309 308 308 308 308 308 307 307 307 307 307 308 308 309 310 310 310 310 310 309 309 309 308 308 307 307 306 305 304 304
318 318 317 318 318 313 310 314 317 317 317 317 316 315 313 312 312 312 311 310 310 309 310 310 310 310 309 309 309 309 309 309 308 308 308 308 308 308 308 308 307 307 307 307 307 307 308 309 309 310 310 310 310 309 309 308 308 308 307 307 305 304 304
317 318 317 318 317 313 310 314 318 318 318 319 318 318 317 317 316 317 316 316 315 315 314 314 314 314 313 312 311 311 311 310 310 309 308 308 308 308 308 308 308 308 307 308 307 307 307 307 308 309 309 309 309 309 309 309 308 307 307 306 305 304 303
317 317 317 316 315 312 311 314 318 319 318 319 319 318 318 318 318 318 318 317 318 318 318 317 317 317 317 316 316 315 314 314 313 313 311 310 309 309 309 309 309 309 308 308 308 308 308 307 308 308 308 309 309 309 309 309 308 307 306 305 304 303 302
317 318 317 316 314 314 313 314 316 317 316 317 319 319 319 319 318 319 318 318 318 319 319 319 318 318 318 318 318 318 317 317 316 316 315 314 314 313 311 310 310 310 309 309 309 309 309 309 309 309 308 308 309 309 309 309 308 307 305 304 303 302 301
320 319 318 317 316 316 317 316 317 317 315 317 319 319 319 319 319 319 319 318 318 319 319 319 319 318 319 319 319 318 318 318 318 318 317 317 316 316 315 314 313 313 312 310 309 309 309 309 309 310 309 309 308 308 308 308 308 308 306 304 302 301 300
321 321 319 317 317 319 319 318 319 318 316 317 320 320 319 319 319 319 319 319 319 318 319 320 319 319 319 319 319 318 318 317 317 317 318 318 317 317 317 317 316 315 314 313 312 310 310 310 310 310 310 309 308 308 308 308 307 307 306 303 302 301 300
319 319 318 318 319 319 319 319 320 319 318 318 320 320 319 319 319 319 318 318 317 318 319 319 319 319 319 320 319 319 318 317 317 317 317 318 318 317 317 317 317 317 316 315 313 311 311 310 310 310 310 309 308 308 308 307 306 305 304 303 302 301 300
318 318 318 318 319 319 319 319 319 319 319 318 318 319 319 318 318 317 317 316 316 318 319 319 318 318 318 319 319 319 319 318 318 317 317 318 318 318 317 317 317 317 316 315 314 313 312 311 310 311 310 309 308 308 307 306 305 305 304 304 303 302 301
320 320 319 319 318 319 319 319 318 318 319 318 317 316 316 317 316 316 316 317 318 319 319 318 318 318 318 318 319 319 319 318 318 318 318 318 318 318 318 317 317 316 316 315 314 313 312 311 311 311 310 309 308 308 307 306 306 305 305 304 303 302 301
320 320 320 319 319 319 320 319 319 319 319 318 317 316 316 316 316 316 317 318 318 319 319 319 319 319 319 320 320 320 319 319 319 319 319 318 318 318 318 317 317 316 316 315 314 313 312 311 311 310 309 308 308 307 307 306 306 306 305 304 303 301 300
319 319 319 319 319 319 319 318 318 318 318 318 318 317 318 317 317 317 318 318 319 319 318 317 316 315 315 316 318 319 320 320 320 320 320 319 319 319 318 317 316 316 315 314 313 312 312 311 310 309 308 308 307 306 306 305 306 305 304 303 302 301 300
316 315 315 315 315 316 316 316 316 316 317 318 317 317 317 317 317 317 317 317 317 316 315 314 311 309 309 309 311 313 315 317 318 319 320 320 319 318 318 317 316 316 315 314 312 312 311 310 309 308 308 307 306 306 305 305 304 304 303 302 301 300 300
312 312 314 314 314 314 314 315 316 316 317 317 316 314 314 315 316 316 315 314 313 312 311 311 309 308 308 307 307 308 309 310 311 313 316 318 318 317 317 317 316 315 314 312 312 311 310 309 309 308 307 306 306 305 304 304 303 303 302 301 300 300 299
309 310 311 313 313 313 313 313 314 314 315 314 313 313 313 314 314 314 314 313 311 309 309 309 308 308 307 308 308 308 309 308 309 311 314 316 317 317 317 316 315 313 312 311 311 311 310 309 308 307 306 306 306 305 304 303 302 302 301 301 300 300 299
308 307 307 309 310 310 310 311 311 311 311 311 311 311 311 312 311 311 310 308 307 306 307 307 307 307 307 308 309 310 310 310 310 311 312 314 316 316 316 316 314 312 311 311 312 311 310 308 307 306 306 305 305 304 303 302 302 301 301 300 300 299 298
307 307 307 308 308 308 308 308 307 306 306 306 306 306 306 306 306 306 305 306 306 305 306 308 308 308 307 309 310 311 311 311 310 310 310 311 313 314 315 315 313 312 311 311 311 310 309 307 306 305 305 304 304 303 302 302 301 301 300 299 298 297 296
307 307 307 308 308 308 308 306 304 302 303 303 302 302 301 301 302 302 302 304 305 305 305 307 308 308 308 309 310 310 311 311 311 310 310 310 311 313 313 313 312 311 310 310 310 309 308 307 306 305 304 304 303 302 302 301 300 300 298 297 296 295 295
307 307 308 307 308 307 307 306 303 302 302 302 302 302 302 302 302 301 301 301 301 302 303 304 306 308 308 309 310 310 311 311 312 311 311 312 312 312 312 312 311 310 309 309 308 308 307 306 305 304 304 303 302 301 300 300 299 297 296 295 295 295 295
307 307 307 307 307 307 307 306 305 303 303 303 303 303 304 304 303 303 301 301 301 300 301 302 305 307 309 309 310 310 310 312 312 312 312 312 312 312 311 310 309 309 308 307 307 306 305 305 304 303 303 302 301 300 299 297 296 295 294 294 294 294 294
306 306 306 306 306 306 306 306 305 304 304 305 305 306 306 306 305 304 303 302 301 301 300 301 303 306 308 309 310 310 310 311 312 312 312 311 311 310 309 308 308 307 307 306 305 305 304 303 303 302 301 300 298 297 296 295 294 294 294 294 294 294 294
306 305 306 306 305 305 305 304 304 305 305 305 306 306 306 306 305 305 303 302 301 301 301 301 303 305 308 309 310 310 310 311 311 312 311 310 310 309 308 308 307 307 306 305 304 303 303 302 301 300 298 297 295 295 294 294 294 294 294 294 294 293 293
305 305 305 305 305 305 304 304 304 304 304 305 305 305 304 304 304 304 303 302 302 302 302 303 304 307 309 310 310 310 310 311 311 311 310 309 308 308 307 306 305 304 303 303 302 301 300 299 297 296 295 295 294 294 294 294 293 293 293 293 293 292 292
Wind_Speed
3 3 5 8 9 10 9 8 6 5 5 5 5 5 5 5 2 2 4 6 5 4 4 2 1 1 1 1 1 2 3 5 7 8 8 8 8 9 9 9 9 9 7 6 6 5 4 4 4 4 3 3 4 4 4 3 2 1 1 1 2 5 7
6 5 5 7 8 9 9 8 7 6 6 5 5 5 5 4 2 3 5 5 5 4 4 3 2 1 2 2 2 1 1 1 0 3 4 3 3 5 6 7 8 9 8 8 6 6 6 6 6 5 4 5 4 4 4 3 3 3 1 1 2 3 6
8 7 7 8 7 8 7 7 6 6 7 6 6 5 5 5 3 3 3 3 3 3 3 3 3 4 5 6 6 4 1 2 3 3 4 4 2 1 3 4 4 6 6 6 6 5 5 5 5 5 4 4 3 2 1 2 3 4 3 3 5 4 5
8 8 8 8 6 6 6 6 6 6 7 7 6 5 6 5 3 2 2 1 1 2 2 2 3 4 5 5 4 2 1 3 4 5 5 5 4 3 3 3 2 2 2 2 2 2 3 3 3 3 3 3 2 2 1 1 2 3 3 3 3 2 3
9 8 8 6 5 6 6 6 7 7 6 6 7 7 7 7 4 2 1 2 2 2 3 3 4 4 4 3 3 4 4 4 4 4 3 3 3 3 3 3 3 3 2 2 2 2 2 3 3 3 3 2 1 3 4 3 2 1 1 1 2 2 2
9 9 8 6 5 5 6 6 6 6 6 6 6 7 8 7 4 3 5 7 8 9 8 8 8 9 9 9 8 7 6 5 5 4 4 4 4 3 3 3 3 3 2 2 1 1 2 2 2 3 2 1 3 5 7 6 5 4 2 3 4 3 2
8 10 9 6 5 5 5 5 5 5 5 5 6 7 7 7 6 7 9 10 10 10 9 8 8 9 9 9 8 7 7 6 5 5 5 4 4 4 3 3 2 1 0 1 1 1 2 2 2 3 3 1 2 6 8 7 6 4 3 3 2 2 2
9 12 11 8 6 6 6 6 6 6 6 6 7 8 9 9 9 9 9 9 9 9 8 7 7 7 8 8 7 6 6 6 5 5 5 4 4 4 3 3 3 2 2 3 3 3 3 3 3 4 4 3 2 4 6 6 5 4 3 2 2 2 3
13 16 14 11 8 7 8 7 7 7 7 8 8 9 9 9 9 8 8 8 8 8 7 7 7 8 8 8 7 7 6 6 6 5 5 5 5 5 4 4 3 3 4 4 4 4 4 5 5 6 6 5 3 3 3 3 3 3 4 4 5 6 6
17 18 15 12 11 10 10 9 8 8 9 9 9 9 9 9 8 8 8 8 8 8 8 8 8 9 9 9 9 9 8 8 8 7 7 7 7 6 6 5 4 5 6 6 6 6 7 7 8 9 9 8 7 6 4 2 1 1 3 5 6 7 7
19 17 13 11 12 12 12 11 10 10 9 9 10 10 10 10 9 9 9 9 9 9 9 10 10 10 10 10 10 10 9 9 9 9 8 8 8 8 7 6 6 6 7 8 8 8 9 9 9 10 10 11 11 10 9 8 6 5 7 8 8 9 9
21 17 12 11 12 15 15 14 13 11 10 10 10 10 10 10 9 9 9 9 9 9 10 10 11 11 11 10 10 9 8 8 8 7 7 6 6 6 6 6 6 6 6 7 7 8 8 8 9 9 10 11 11 11 11 11 10 9 10 11 12 12 12
23 18 15 13 13 14 15 14 14 12 11 11 11 11 10 9 9 8 8 8 8 8 8 9 9 9 9 8 8 7 6 5 5 4 4 4 3 3 3 3 3 3 4 4 5 5 6 7 7 7 8 9 10 11 11 11 11 11 11 12 13 14 14
23 19 18 15 12 14 15 15 14 12 11 12 11 11 11 9 9 8 7 7 6 6 6 6 6 6 6 7 6 6 5 4 3 2 2 1 1 1 0 0 0 1 2 2 2 2 3 4 4 5 6 7 8 9 10 11 12 12 12 12 13 13 14
23 20 19 16 13 16 18 15 14 13 12 11 11 11 10 9 9 8 8 7 7 6 6 5 5 5 5 5 5 5 5 5 4 4 3 4 4 3 3 3 3 3 3 3 3 1 0 1 2 3 4 5 6 7 8 10 11 12 13 12 13 13 13
24 21 20 18 16 17 18 15 14 15 14 13 13 11 10 9 9 8 8 8 8 7 7 7 7 7 6 6 6 6 6 6 6 6 6 6 7 6 5 5 5 5 5 5 5 4 3 2 2 3 4 5 7 8 9 10 11 13 14 14 14 15 15
25 23 22 21 19 20 20 16 15 15 15 16 17 15 13 12 10 9 9 8 9 9 8 8 8 8 7 7 7 7 7 7 7 8 8 8 9 8 7 6 6 5 6 6 6 5 4 4 4 5 6 7 8 9 10 11 12 13 14 15 15 16 17
26 25 23 22 22 25 25 21 18 17 16 17 18 16 15 14 13 12 11 10 10 11 11 10 10 9 9 8 8 8 8 9 9 9 9 10 10 10 9 8 8 7 6 7 7 6 6 6 6 7 8 9 10 11 11 12 12 13 14 15 15 16 17
25 25 24 23 23 25 26 24 22 21 19 19 20 19 17 16 16 16 15 14 14 14 13 13 13 12 11 11 10 10 9 10 10 10 10 10 10 10 10 10 10 9 8 8 8 7 7 7 7 8 9 10 11 12 12 13 13 13 14 15 15 16 17
22 24 24 22 23 25 25 25 25 26 25 23 23 22 21 21 19 19 20 20 19 17 16 16 16 15 15 14 14 13 13 13 13 14 13 13 12 12 11 11 12 11 10 10 10 9 8 8 7 8 9 10 11 12 13 14 14 14 14 15 16 16 17
21 23 23 23 25 27 27 27 27 29 29 27 25 25 24 24 22 20 21 22 22 21 20 19 18 17 17 17 18 17 17 16 16 17 18 17 16 15 14 14 13 13 12 11 11 11 10 9 9 9 9 10 11 12 13 14 14 14 15 15 16 17 17
22 23 24 25 27 29 31 30 29 31 32 29 27 26 25 23 22 21 21 21 22 23 22 20 21 21 20 20 21 21 21 20 19 19 20 21 20 19 18 17 16 15 14 14 13 12 12 11 11 11 11 11 11 12 14 15 16 16 16 16 16 17 18
23 24 26 27 27 29 31 30 26 28 30 27 25 25 25 23 23 23 21 20 21 21 20 20 21 21 20 21 22 23 23 23 22 21 20 22 23 22 21 20 18 17 17 16 16 15 13 13 12 12 13 12 13 13 14 16 17 18 18 18 18 19 19
22 22 23 25 25 26 28 27 25 26 29 25 20 20 23 24 24 22 20 19 18 17 17 17 16 16 17 20 22 23 24 23 22 20 20 21 23 23 22 22 21 20 20 19 19 17 15 14 14 14 14 14 14 15 16 17 19 20 20 21 21 22 22
18 18 19 19 21 22 24 23 23 23 24 21 14 12 16 19 19 18 17 15 13 12 12 12 11 12 14 16 18 20 20 19 18 18 19 19 20 21 22 23 24 23 23 22 21 19 17 16 15 15 15 15 15 16 17 19 21 22 23 23 23 24 24
15 15 15 15 17 18 19 18 18 17 15 13 9 9 11 12 12 12 11 10 9 10 10 10 10 11 12 13 15 16 17 17 17 17 16 16 17 18 20 23 24 25 24 24 22 20 18 17 16 15 16 16 16 17 19 20 22 23 24 24 24 25 26
13 13 13 14 15 16 15 15 14 13 12 10 9 9 8 8 8 8 7 8 9 9 10 11 11 12 12 13 14 15 16 17 18 18 17 16 16 16 17 20 24 25 26 25 22 19 18 17 16 16 16 17 18 19 21 22 22 23 24 24 25 26 27
12 12 13 14 14 14 14 14 13 12 12 11 9 9 9 9 9 9 9 9 10 11 11 12 12 12 11 12 12 13 14 16 17 18 18 17 16 15 15 18 22 25 25 23 21 19 17 16 17 17 17 18 20 21 23 23 23 24 24 24 25 26 28
13 13 13 14 14 13 13 13 13 12 12 11 11 10 10 11 11 11 11 12 13 13 13 13 13 12 11 12 12 12 13 13 14 15 16 17 16 15 15 17 20 23 24 23 22 21 19 18 18 18 18 20 22 23 24 24 24 24 25 25 26 27 29
14 13 14 14 14 14 14 13 13 13 12 12 12 12 12 13 13 13 13 13 13 13 12 12 12 11 11 11 11 12 12 12 12 12 13 14 14 13 14 16 19 22 24 24 23 22 20 18 18 19 20 22 23 23 23 24 24 25 26 27 28 30 31
14 13 14 15 15 15 14 13 13 12 12 12 11 12 13 13 14 14 13 13 13 12 11 12 12 12 12 12 12 12 12 13 13 12 11 11 11 11 12 15 19 22 23 22 21 20 19 18 19 21 22 23 22 22 23 24 25 26 27 28 30 31 32
12 12 13 15 16 15 15 14 12 10 10 10 10 10 10 10 11 12 13 14 14 14 14 14 14 14 13 13 13 12 13 13 13 12 12 11 10 11 12 16 19 20 20 19 19 19 19 20 21 22 23 23 23 23 24 25 26 28 30 31 32 33 33
13 13 13 14 14 14 14 14 13 10 8 9 9 9 9 9 10 11 12 14 15 15 16 16 15 15 14 14 14 13 13 13 13 12 11 10 10 12 14 16 18 19 19 19 19 20 21 21 22 23 23 24 24 25 26 27 29 32 33 34 34 35 35
13 14 14 13 12 12 13 13 12 10 9 10 10 11 11 12 13 13 12 13 14 16 17 17 17 17 16 16 15 14 14 13 12 11 11 11 12 13 14 16 17 18 18 19 19 20 21 21 22 23 24 25 26 27 28 30 31 33 33 34 34 34 34
12 13 14 13 13 12 13 13 13 12 11 11 12 13 13 13 14 15 15 15 15 16 17 18 18 17 16 16 16 15 14 14 13 12 12 12 13 14 15 16 17 18 18 19 19 20 21 21 22 23 25 26 27 28 29 30 31 32 32 33 34 34 34
16 16 15 15 14 13 13 13 13 12 12 11 11 12 13 14 15 17 18 17 16 16 16 17 17 15 15 15 15 15 15 14 14 14 14 14 14 15 17 17 17 17 18 18 19 20 21 22 23 25 26 26 27 28 29 30 31 31 32 33 33 33 33
20 19 18 17 16 15 15 15 14 14 13 13 13 13 14 16 17 19 20 19 16 16 16 15 15 14 13 14 14 15 15 15 15 15 15 15 15 16 16 16 15 16 17 18 19 21 22 23 23 23 24 25 26 27 28 29 30 30 31 31 31 32 32
Wind_Direction
245 259 255 247 250 256 255 252 248 232 220 221 229 247 258 261 262 142 157 180 195 208 218 224 219 186 130 119 143 179 216 229 230 232 229 230 232 230 233 238 242 241 234 222 213 211 213 208 202 209 213 212 221 224 218 217 214 233 248 228 302 311 304
240 248 233 224 234 245 248 248 247 243 238 229 233 250 252 241 209 148 156 174 189 204 217 229 251 304 354 3 6 34 55 50 278 233 219 216 225 223 223 232 241 237 228 228 235 243 245 240 230 226 212 199 206 217 222 227 234 249 263 211 244 287 292
236 234 216 208 215 229 239 246 246 246 246 242 240 237 223 214 189 142 135 154 184 215 230 250 274 298 312 312 309 309 340 56 60 74 83 86 102 159 189 208 234 240 239 246 252 253 250 246 237 226 204 189 170 133 200 235 255 277 295 263 244 253 274
238 228 211 206 213 223 230 237 238 233 234 236 235 220 202 201 191 146 96 49 305 295 292 305 315 315 309 303 301 300 116 107 99 95 89 87 89 91 112 131 155 210 229 238 234 234 246 261 256 237 232 229 196 141 182 253 301 310 306 271 253 266 303
242 224 207 205 218 228 228 229 228 220 210 211 217 213 202 199 201 181 78 51 63 74 77 75 68 62 64 74 88 99 104 109 119 125 125 116 97 84 101 124 143 174 193 198 204 228 257 272 267 256 260 259 194 164 184 193 155 70 357 69 67 53 16
244 222 204 202 215 225 224 216 215 211 200 194 198 203 202 197 191 140 109 104 105 106 106 104 100 94 92 90 91 94 99 107 117 122 126 128 120 115 122 140 163 187 207 215 232 274 298 297 291 293 295 170 142 150 168 176 159 138 124 110 90 69 34
236 220 205 193 201 210 208 198 195 198 191 179 170 174 180 174 154 132 120 117 114 114 114 110 103 97 95 96 98 101 104 107 109 109 116 122 121 119 117 117 130 150 133 85 62 47 21 359 356 359 8 47 135 157 169 173 167 162 156 139 110 69 21
212 221 208 186 189 198 192 184 183 185 180 173 160 154 158 155 148 141 133 129 126 123 120 114 108 101 96 96 98 103 109 109 108 111 115 116 111 107 106 103 103 100 88 79 68 64 58 48 44 39 37 50 101 153 175 182 184 198 206 220 264 292 310
211 221 208 186 184 194 195 187 183 185 183 178 168 159 157 154 154 152 146 142 138 133 130 123 115 106 99 95 95 97 100 99 99 101 101 101 100 97 99 100 100 100 97 90 78 65 57 48 44 41 38 46 71 109 157 185 203 229 249 269 281 291 297
220 219 207 193 188 194 199 197 194 195 192 188 182 174 169 162 158 154 149 148 143 135 131 126 116 107 101 98 98 97 95 94 93 93 90 89 90 88 87 90 93 95 91 82 69 57 48 38 34 33 33 38 44 50 63 70 55 329 310 306 304 308 309
221 216 209 205 198 197 201 201 201 202 198 196 193 188 184 177 167 159 151 146 140 133 130 126 121 115 110 107 105 102 100 99 96 94 92 87 83 79 77 81 85 86 83 77 66 54 44 33 28 26 26 32 33 32 33 32 32 24 2 349 337 332 332
218 210 204 213 209 202 203 203 202 203 202 200 200 198 195 188 180 171 160 153 147 140 134 130 126 122 118 115 111 108 104 102 99 97 94 88 83 79 78 80 79 79 81 81 72 59 45 34 26 20 19 23 23 20 19 18 16 8 357 352 347 340 338
217 209 201 210 214 207 208 209 204 203 205 204 204 203 202 196 190 184 176 170 165 159 151 144 138 134 131 128 124 122 120 115 112 107 103 100 94 89 84 82 82 90 101 101 89 71 54 44 32 20 16 15 13 10 6 2 359 357 351 345 342 337 333
215 213 206 207 215 212 211 213 209 207 209 209 208 206 204 201 197 196 193 188 182 179 174 167 164 160 155 154 155 155 157 160 158 151 152 167 176 190 201 214 214 170 160 164 140 97 64 52 39 24 14 9 5 360 355 350 345 343 343 340 335 332 329
212 213 208 207 217 216 210 210 214 215 213 216 217 213 209 207 207 208 207 208 209 205 202 199 198 200 196 195 195 193 196 201 208 210 211 223 230 230 236 249 253 253 245 236 231 228 348 31 21 8 1 355 352 346 341 340 337 334 335 336 333 330 328
212 211 208 208 216 216 211 214 220 221 222 228 232 230 228 224 223 225 223 226 231 230 229 227 226 228 225 226 231 232 232 231 234 236 234 239 243 241 242 245 245 252 259 259 253 253 262 291 323 329 334 335 336 335 333 331 330 328 329 332 332 329 328
213 213 212 211 211 212 215 221 224 225 230 236 238 240 241 238 238 240 239 241 244 246 248 248 250 252 249 246 245 247 252 251 249 248 246 246 248 250 255 257 252 251 259 265 264 263 270 280 296 309 317 323 325 328 329 327 326 325 325 327 328 326 325
216 217 218 219 216 214 220 226 226 225 226 229 234 237 239 241 243 244 244 247 250 251 254 257 261 264 263 263 259 259 261 263 264 263 258 256 255 256 260 264 264 260 258 265 272 277 281 282 293 305 311 314 317 322 325 325 323 322 321 322 323 322 321
217 219 222 227 225 221 225 227 225 225 224 226 231 232 233 239 242 244 249 252 255 256 256 261 269 271 268 266 265 266 265 267 271 271 268 267 266 266 267 268 271 272 267 264 266 271 277 281 292 302 305 307 310 314 318 319 319 318 317 317 317 317 315
214 217 222 229 232 232 232 228 224 226 229 233 234 230 231 237 240 243 248 251 253 256 258 261 266 268 269 269 268 268 269 270 271 270 270 269 269 271 273 272 274 276 274 269 264 265 269 275 286 295 298 301 303 305 308 311 312 313 313 313 312 312 312
214 218 224 230 232 233 235 233 228 228 232 235 234 232 234 240 246 247 247 251 254 255 256 259 263 262 261 264 266 267 270 274 276 273 271 269 268 269 270 272 274 276 277 276 271 266 267 268 275 286 291 293 294 297 301 305 307 307 309 309 308 309 309
223 226 231 233 233 233 236 236 230 230 233 232 232 235 236 241 250 251 247 250 257 258 257 263 271 269 262 260 262 263 267 273 279 278 272 268 267 267 267 267 270 274 277 278 274 269 268 270 276 286 292 289 289 293 300 305 306 306 307 306 305 304 304
230 233 232 232 235 237 237 234 231 234 239 235 231 235 240 245 252 253 250 253 260 262 263 267 272 271 264 261 261 263 267 272 276 276 271 265 262 263 265 264 265 268 270 273 272 269 268 272 279 289 293 290 289 295 302 307 308 308 309 308 306 305 305
228 230 229 228 232 237 239 239 239 243 251 251 242 240 246 251 253 254 255 258 258 259 263 266 268 267 265 265 264 264 267 270 271 269 267 263 260 260 262 262 263 263 264 266 268 268 267 270 276 285 289 290 295 302 307 309 310 311 312 311 310 310 312
221 221 223 225 230 236 239 242 242 244 252 259 258 246 245 248 250 252 253 255 253 254 259 264 265 266 267 267 264 263 263 263 262 262 263 264 263 262 262 261 260 260 262 264 265 264 263 266 273 281 285 290 299 305 307 309 310 311 312 312 311 313 315
220 217 219 220 223 227 228 230 234 236 240 243 234 221 227 237 244 248 250 252 252 251 256 263 269 272 270 268 265 264 263 263 263 262 262 264 264 265 265 263 260 259 259 259 257 256 258 263 271 278 283 291 298 302 304 306 308 309 309 309 311 314 315
206 204 204 204 205 210 214 218 222 222 219 213 208 210 220 231 239 244 248 251 252 254 259 266 273 276 276 274 271 268 268 268 267 267 268 267 264 261 263 264 263 260 257 254 251 249 254 262 270 276 283 290 296 300 301 303 304 305 305 307 310 312 313
194 196 198 201 204 207 212 217 218 219 219 218 222 226 226 227 230 236 244 252 258 262 266 270 273 275 277 278 279 279 279 278 276 275 274 274 270 263 261 264 263 257 251 247 243 242 249 261 270 277 284 290 295 298 298 299 300 302 303 305 307 308 309
202 205 207 208 211 213 218 221 222 226 229 231 238 241 238 238 241 246 253 260 264 265 267 270 273 273 275 278 283 289 292 293 290 284 277 275 273 268 265 263 257 249 243 240 241 247 257 266 272 279 285 289 292 292 292 294 297 299 301 302 302 303 305
216 219 220 218 218 221 224 227 230 233 236 238 244 248 250 252 255 257 260 262 263 264 266 267 270 273 276 278 284 291 297 300 300 292 282 276 272 269 269 263 251 241 238 240 245 255 265 271 274 279 283 286 287 287 289 292 294 295 297 299 300 300 301
226 226 223 217 215 219 225 235 244 244 240 241 245 249 253 256 258 260 259 258 259 262 263 265 270 275 278 280 284 288 295 302 306 305 302 295 284 277 270 260 248 241 241 246 254 263 271 274 276 279 282 283 284 285 286 288 289 290 293 295 296 297 297
227 228 226 222 222 225 231 239 244 240 234 236 241 248 253 258 262 263 262 261 261 262 264 266 270 273 278 282 286 289 292 298 304 309 312 308 297 284 269 257 249 245 247 255 263 267 271 272 274 278 280 282 283 283 283 285 286 289 291 292 293 294 295
223 225 227 229 232 235 237 238 239 238 239 241 246 256 264 270 275 274 271 269 269 269 269 270 271 275 280 284 288 291 292 293 298 303 304 300 289 277 266 257 252 251 253 259 263 265 268 271 274 277 280 282 283 283 285 288 291 293 294 294 295 296 297
214 216 218 219 222 226 230 234 239 248 254 254 261 272 279 285 289 288 283 277 272 272 271 271 273 277 282 286 289 291 291 290 292 294 292 287 279 270 263 257 254 255 258 260 263 266 270 273 276 279 282 284 285 287 290 292 293 294 296 297 298 298 298
217 215 213 211 210 213 220 230 240 249 252 257 267 274 278 283 289 293 294 288 280 275 274 274 275 278 282 287 288 289 289 288 286 283 280 275 270 264 258 255 255 258 261 263 266 270 272 275 277 280 283 285 287 290 292 293 294 295 296 297 298 298 299
235 232 228 225 224 227 232 237 241 244 247 253 261 268 274 280 286 292 298 296 289 283 280 278 278 279 281 282 281 282 284 282 281 278 274 269 265 259 255 254 255 259 263 265 268 271 273 276 278 281 284 287 290 291 292 293 295 296 297 298 299 300 301
236 236 237 236 236 237 241 244 246 250 254 257 261 269 277 284 288 293 296 296 294 292 290 286 282 279 276 273 271 272 273 272 271 269 267 264 261 257 254 255 258 263 266 268 270 273 275 278 282 285 288 291 292 294 295 296 298 299 300 301 302 303 304